Estación Meteorológica Peña el Pijo (Robertgarden) [ 12/11/19 23:06:10 CET ]

Fecha Hora Presion(HPa) Temp (°C) Humedad % Rocio (°C) Viento ( m/s) Direccion Lluvia 1Hora(mm) Lluvia 24H(mm) LLuvia Total(mm)
2019-Dec-08 01:09:24 1013.500 - - - - S     39.88
2019-Dec-08 02:13:11 1013.400 - - - - S     39.88
2019-Dec-08 03:10:58 1013.200 - - - - S     39.88
2019-Dec-08 04:10:56 1013.000 - - - - S     39.88
2019-Dec-08 05:09:39 1012.800 - - - - S     39.88
2019-Dec-08 06:10:05 1012.600 - - - - S     39.88
2019-Dec-08 07:09:05 1013.100 - - - - S     39.88
2019-Dec-08 08:09:24 1013.300 - - - - S     39.88
2019-Dec-08 09:09:33 1013.400 - - - - S     39.88
2019-Dec-08 10:09:19 1013.900 - - - - S     39.88
2019-Dec-08 11:09:33 1013.800 - - - - S     39.88
2019-Dec-08 12:08:57 1013.400 - - - - S     39.88
2019-Dec-08 13:09:32 1012.900 - - - - S     39.88
2019-Dec-08 14:09:36 1012.300 - - - - S     39.88
2019-Dec-08 15:09:38 1011.900 - - - - S     39.88
2019-Dec-08 16:09:19 1012.000 - - - - S     39.88
2019-Dec-08 17:09:17 1012.100 - - - - S     39.88
2019-Dec-08 18:09:17 1012.600 - - - - S     39.88
2019-Dec-08 19:09:03 1013.500 - - - - S     39.88
2019-Dec-08 20:09:02 1013.400 - - - - S     39.88
2019-Dec-08 21:08:57 1013.800 - - - - S     39.88
2019-Dec-08 22:09:19 1013.400 - - - - S     39.88
2019-Dec-08 23:09:38 1013.800 - - - - S     39.88

Temperatura Máxima:    Temperatura Mínima:
Presión Máxima:1013.900 Hpa    Presión Mínima:1011.900 Hpa


Volver